KLM14D UKBB-EHAM

Flight info

Callsign KLM14D
Flight time N/A
Altitude 38000
Route KAFEL T731 OKROT M70 TOLPA/N0445F380 DCT LUGUG DCT POLON L980 ADLIR DCT HLZ DCT ROBEG DCT NORKU
Aircraft B38M/M-SDFGHIRWXYZ/LB1

Departure

Time 2026-05-07 16:23
Airport Boryspil International Airport (UKBB)

Arrival

Time N/A
Airport Amsterdam Airport Schiphol (EHAM)
Time Latitude Longitude Altitude Speed Heading
2026-05-07 15:49 50.35259 30.89895 431 ft 0 kts 273°
2026-05-07 16:16 50.35259 30.89927 428 ft 4 kts 273°
2026-05-07 16:16 50.35257 30.89967 423 ft 3 kts 273°
2026-05-07 16:16 50.35253 30.89999 421 ft 4 kts 317°
2026-05-07 16:16 50.35231 30.90014 419 ft 4 kts 356°
2026-05-07 16:17 50.35208 30.90014 423 ft 1 kts
2026-05-07 16:19 50.35227 30.90016 420 ft 8 kts
2026-05-07 16:19 50.35306 30.90021 429 ft 14 kts
2026-05-07 16:19 50.35420 30.90037 423 ft 17 kts 19°
2026-05-07 16:19 50.35458 30.90185 430 ft 15 kts 88°
2026-05-07 16:20 50.35522 30.90279 424 ft 13 kts
2026-05-07 16:20 50.35622 30.90287 419 ft 15 kts
2026-05-07 16:20 50.35737 30.90296 418 ft 18 kts
2026-05-07 16:20 50.35867 30.90305 424 ft 20 kts
2026-05-07 16:21 50.36009 30.90323 422 ft 21 kts 16°
2026-05-07 16:21 50.36082 30.90485 429 ft 19 kts 94°
2026-05-07 16:21 50.36031 30.90598 429 ft 11 kts 151°
2026-05-07 16:21 50.35957 30.90631 421 ft 11 kts 173°
2026-05-07 16:22 50.35785 30.90624 420 ft 47 kts 182°
2026-05-07 16:22 50.35296 30.90590 422 ft 92 kts 183°
2026-05-07 16:22 50.34541 30.90537 421 ft 125 kts 183°
2026-05-07 16:22 50.33570 30.90465 438 ft 149 kts 179°
2026-05-07 16:23 50.32496 30.90421 550 ft 160 kts 185°
2026-05-07 16:23 50.31344 30.90240 807 ft 171 kts 189°
2026-05-07 16:23 50.30095 30.89978 1021 ft 183 kts 189°
2026-05-07 16:23 50.28832 30.89728 1395 ft 182 kts 187°
2026-05-07 16:24 50.27594 30.89565 1980 ft 176 kts 186°
2026-05-07 16:24 50.26377 30.89423 2280 ft 177 kts 186°
2026-05-07 16:24 50.25119 30.89345 2417 ft 187 kts 181°
2026-05-07 16:24 50.24212 30.89359 2456 ft 200 kts 182°
2026-05-07 16:25 50.22714 30.89344 2690 ft 221 kts 182°
2026-05-07 16:25 50.21145 30.89274 3054 ft 235 kts 195°
2026-05-07 16:25 50.19680 30.88077 3517 ft 243 kts 221°
2026-05-07 16:25 50.18633 30.85903 4119 ft 252 kts 246°
2026-05-07 16:26 50.18307 30.83197 4750 ft 260 kts 271°
2026-05-07 16:26 50.18663 30.80385 5326 ft 268 kts 281°
2026-05-07 16:26 50.19171 30.77567 5938 ft 271 kts 282°
2026-05-07 16:26 50.19671 30.74722 6572 ft 273 kts 281°
2026-05-07 16:27 50.20144 30.71843 7139 ft 275 kts 281°
2026-05-07 16:27 50.20619 30.68929 7715 ft 278 kts 281°
2026-05-07 16:27 50.21106 30.65993 8283 ft 281 kts 282°
2026-05-07 16:27 50.21600 30.63027 8861 ft 284 kts 282°
2026-05-07 16:28 50.22096 30.60030 9451 ft 286 kts 282°
2026-05-07 16:28 50.22591 30.57017 10038 ft 287 kts 282°
2026-05-07 16:28 50.23092 30.53967 10446 ft 294 kts 282°
2026-05-07 16:28 50.23610 30.50813 10740 ft 306 kts 281°
2026-05-07 16:29 50.24149 30.47522 10958 ft 319 kts 282°
2026-05-07 16:29 50.24708 30.44110 11288 ft 329 kts 282°
2026-05-07 16:29 50.25280 30.40617 11698 ft 335 kts 282°
2026-05-07 16:29 50.25861 30.37056 12165 ft 340 kts 282°
2026-05-07 16:30 50.26447 30.33453 12663 ft 344 kts 282°
2026-05-07 16:30 50.27037 30.29812 13174 ft 347 kts 282°
2026-05-07 16:30 50.27633 30.26133 13694 ft 351 kts 281°
2026-05-07 16:30 50.28233 30.22422 14166 ft 354 kts 281°
2026-05-07 16:31 50.28837 30.18679 14627 ft 356 kts 281°
2026-05-07 16:31 50.29443 30.14911 15099 ft 359 kts 281°
2026-05-07 16:31 50.30049 30.11137 15565 ft 361 kts 281°
2026-05-07 16:31 50.30660 30.07322 16025 ft 363 kts 281°
2026-05-07 16:32 50.31274 30.03479 16502 ft 365 kts 282°
2026-05-07 16:32 50.31889 29.99616 16970 ft 367 kts 281°
2026-05-07 16:32 50.32508 29.95726 17434 ft 369 kts 281°
2026-05-07 16:32 50.33128 29.91814 17897 ft 371 kts 282°
2026-05-07 16:33 50.33751 29.87880 18346 ft 374 kts 281°
2026-05-07 16:33 50.34376 29.83923 18736 ft 376 kts 281°
2026-05-07 16:33 50.35004 29.79936 19116 ft 378 kts 282°
2026-05-07 16:33 50.35633 29.75931 19502 ft 380 kts 282°